• Join FlightAware (Why Join?)
  • Login
  • US Flag GB Flag 
19:02 EDT


 

Airport Tracker/Info


-or-


 

Live Flight TrackerFlight Track Log ✈ N589H ✈ 16-Jan-2014 ✈ MYNN / NAS - KMLB

Flight Track Log - Related Links

Times and Time Zones

All times are in EST time to prevent confusion due to time zone crossing. See the N589H flight status page for this flight to view local times or setup timezone preferences in your user account.

Time Position Orientation Groundspeed Altitude Reporting Facility
EST Latitude Longitude Course Direction KTS MPH feet Rate Location/Type
04:32 25.3429 -77.7711 318° Northwest  Level Estimated
04:33 25.1092 -77.4761 318° Northwest 199 229 3,800  Level Miami Center
04:34 25.1508 -77.5200 316° Northwest 194 223 6,000 2,100 Climbing Miami Center
04:35 25.5250 -77.9548 317° Northwest  Level Estimated
04:35 25.1861 -77.5569 317° Northwest 194 223 8,100  Level Miami Center
04:36 25.5854 -78.0164 317° Northwest  Level FlightAware Approximate
04:36 25.2278 -77.5986 318° Northwest 194 223 9,900  Level Miami Center
04:37 25.2778 -77.6494 317° Northwest 207 238 12,200 2,040 Climbing Miami Center
04:38 25.3256 -77.6981 317° Northwest 218 251 14,100 1,560 Climbing Miami Center
04:39 25.3733 -77.7489 316° Northwest 228 262 15,400 1,320 Climbing Miami Center
04:40 25.4231 -77.7975 319° Northwest 233 268 16,800 1,140 Climbing Miami Center
04:41 25.4731 -77.8508 316° Northwest 233 268 17,800 900 Climbing Miami Center
04:42 25.5289 -77.9089 317° Northwest 254 292 18,600 960 Climbing Miami Center
04:43 25.5872 -77.9669 318° Northwest 268 308 19,800 900 Climbing Miami Center
04:44 25.6431 -78.0275 316° Northwest 273 314 20,500 780 Climbing Miami Center
04:45 25.7011 -78.0881 317° Northwest 278 320 21,400 600 Climbing Miami Center
04:46 25.7675 -78.1533 318° Northwest 292 336 21,800 300 Climbing Miami Center
04:47 25.8314 -78.2233 315° West 307 353 22,000 60 Climbing Miami Center
04:48 25.9039 -78.3003 316° Northwest 328 377 22,000  Level Miami Center
04:49 25.9703 -78.3636 319° Northwest 342 394 22,000  Level Miami Center
04:50 26.0467 -78.4408 318° Northwest 353 406 22,000  Level Miami Center
04:51 26.1211 -78.5181 317° Northwest 358 412 22,000  Level Miami Center
04:52 26.1889 -78.6047 311° West 364 419 22,000  Level Miami Center
04:53 26.2694 -78.6800 320° Northwest 371 427 22,000  Level Miami Center
04:54 26.3439 -78.7553 318° Northwest 371 427 22,000 900 Level Miami Center
04:55 26.4139 -78.8308 316° Northwest 366 421 23,900 1,020 Climbing Miami Center
04:56 26.4839 -78.9039 317° Northwest 358 412 24,000  Climbing Miami Center
04:57 26.5578 -78.9842 316° Northwest 358 412 24,000  Level Miami Center
04:58 26.6361 -79.0644 318° Northwest 369 425 24,000  Level Miami Center
04:59 26.7142 -79.1497 316° Northwest 376 433 24,000  Level Miami Center
05:00 26.7922 -79.2303 317° Northwest 382 440 24,000  Level Miami Center
05:01 26.8783 -79.3231 316° Northwest 382 440 24,000  Level Miami Center
05:02 26.9564 -79.4061 317° Northwest 381 438 24,000 -840 Level Miami Center
05:03 27.0322 -79.4825 318° Northwest 381 438 22,400 -1,800 Descending Miami Center
05:04 27.0917 -79.5492 315° West 352 405 20,500 -2,280 Descending Miami Center
05:05 27.1633 -79.6231 317° Northwest 318 366 17,900 -2,640 Descending Miami Center
05:06 27.2269 -79.6853 319° Northwest 308 354 15,300 -2,520 Descending Miami Center
05:07 27.2906 -79.7408 322° Northwest 296 341 12,800 -2,400 Descending Miami Center
05:08 27.3439 -79.7911 320° Northwest 282 325 10,500 -2,460 Descending Miami Center
05:09 27.4033 -79.8442 322° Northwest 282 325 8,000 -2,520 Descending Miami Center
05:10 27.4667 -79.9044 320° Northwest 277 319 5,700 -1,320 Descending Miami Center
05:11 27.5242 -79.9575 321° Northwest 272 313 5,400 -360 Descending Miami Center
05:12 27.5814 -80.0106 321° Northwest 267 307 5,000 -240 Descending Miami Center
05:13 27.6325 -80.0564 322° Northwest 267 307 5,000  Level Miami Center
05:14 27.6939 -80.1167 319° Northwest 267 307 5,000  Level Miami Center
05:15 27.7533 -80.1678 323° Northwest 267 307 5,000  Level Miami Center
05:16 27.8083 -80.2208 320° Northwest 267 307 5,000  Level Miami Center
05:17 27.8636 -80.2719 321° Northwest 255 293 5,000 -360 Level Miami Center
05:19 27.9833 -80.3833 321° Northwest 217 250 4,000 -900 Descending Orlando TRACON
05:20 28.0167 -80.4167 319° Northwest 216 249 2,300 -1,080 Descending Orlando TRACON
05:21 28.0667 -80.4333 344° North 141 162 2,000 -420 Descending Orlando TRACON
05:22 28.1000 -80.4500 336° Northwest 175 201 1,500 -300 Descending Orlando TRACON
05:23 28.1000 -80.5000 270° West 176 203 1,500  Level Orlando TRACON
05:24 28.1000 -80.5500 270° West 148 170 1,500 -480 Level Orlando TRACON
05:25 28.1000 -80.6000 270° West 138 159 600 -900 Descending Orlando TRACON
05:27 28.1000 -80.6333 294° West  Level FlightAware Approximate
05:34 28.1028 -80.6453 294° West  Level Estimated
05:35 28.1028 -80.6453 294° West  Level Estimated
05:36 28.1028 -80.6453 294° West  Level Estimated
05:37 28.1028 -80.6453 294° West  Level Estimated